Volver al catálogo

SL-12 R/B

AUX MOTOR

ActivoHEO
NORAD 33384·ROCKET BODY·🇷🇺 Russia

Lanzado Sep 25, 2008 desde Baikonur Cosmodrome

Loading…

Próximos Pases (próximas 24 horas)

TLE

ActualizadoSource: Space-Track

Época: Sep 8, 2026, 05:38 UTC

1 33384U 08046G   26251.23484277  .00000049  00000-0  54732-3 0  9999
2 33384  65.3024   8.1030 5663219 231.6062  62.6601  4.23399042277415

Sigue SL-12 R/B en tiempo real con AllMySat

Download on the App Store